Forside
METAR-TAF:

METAR-TAF

Lufthavne :

Lawrence J. Timmerman Airport

Milwaukee, Wisconsin, USA

Breddekreds: 43-07N, længdekreds: 088-02W, højde: 227 m

Aktuelle vejr

Denne rapport blev lavet for 1 time og 1 minutter siden, kl. 20:45 UTC
Vind 8 kt fra øst
Temperatur 12°C
Fugtighed 40%
Tryk 1020 hPa
Sigt: 16.1 km
Brudte skyer i en højde af 6000 ft

METAR: KMWC 052045Z 09008KT 10SM BKN060 12/M01 A3013

Tid: 16:46 (21:46 UTC)


TAF: fraværende

Vejrobservationer og prognoser fra mere end 4000 lufthavne (METAR og TAF).

De gule og røde prikker repræsenterer de meteorologiske stationer.

Flyt musen over at se navnet på stationen.

Så klik over at se vejr observationer og prognoser.

At skifte det kort: Klik på de grønne knapper med et sort kors for at zoome ind; på den grønne knap med en bindestreg for at zoome ud; eller på de grønne pile for tilstødende kort.


METAR-TAF: